Sitka, Alaska, United States (99835)
Lat: 57.05N, Lon: 135.33W
Wx Zone: AKZ023
Local Info
Past Weather Observations for Friday, July 22, 2016

NOTE: This archive is for the closest National Weather Service station to Sitka. Information may differ from the station used for current weather conditions.

Click here for Long-term Archive

Time Weather Temperature Dewpoint Humidity Pressure Winds Precip Visibility
23:53
Overcast
Light Rain
57°F / 14°C 54°F / 12°C 88% 29.8 in
(1009 mb)
SSE 10.4 mph
(SSE 17 kph)
0.01 in
(0.25 mm)
8SM
22:53
Overcast
57°F / 14°C 54°F / 12°C 88% 29.83 in
(1010 mb)
S 10.4 mph
(S 17 kph)
0.00 in
(0.00 mm)
10SM
21:53
Overcast
Light Rain
57°F / 14°C 54°F / 12°C 88% 29.86 in
(1011 mb)
SSE 9.2 mph
(SSE 15 kph)
0.01 in
(0.25 mm)
10SM
21:37
Overcast
59°F / 15°C 54°F / 12°C 82% 29.86 in
(1011 mb)
S 5.8 mph
(S 9 kph)
0.01 in
(0.25 mm)
10SM
20:53
Overcast
57°F / 14°C 54°F / 12°C 88% 29.86 in
(1011 mb)
S 6.9 mph
(S 11 kph)
0.00 in
(0.00 mm)
10SM
19:53
Overcast
57°F / 14°C 54°F / 12°C 88% 29.89 in
(1012 mb)
S 9.2 mph
(S 15 kph)
0.00 in
(0.00 mm)
10SM
18:53
Overcast
Light Rain
57°F / 14°C 54°F / 12°C 88% 29.89 in
(1012 mb)
S 6.9 mph
(S 11 kph)
0.00 in
(0.00 mm)
10SM
17:53
Overcast
57°F / 14°C 55°F / 13°C 94% 29.89 in
(1012 mb)
S 6.9 mph
(S 11 kph)
0.00 in
(0.00 mm)
10SM
16:53
Overcast
Fog And Mist
57°F / 14°C 55°F / 13°C 94% 29.92 in
(1013 mb)
SW 8.1 mph
(SW 13 kph)
0.01 in
(0.25 mm)
6SM
16:40
Overcast
57°F / 14°C 55°F / 13°C 94% 29.92 in
(1013 mb)
SSE 9.2 mph
(SSE 15 kph)
0.01 in
(0.25 mm)
7SM
16:29
Overcast
Fog And Mist
57°F / 14°C 55°F / 13°C 94% 29.92 in
(1013 mb)
S 8.1 mph
(S 13 kph)
0.01 in
(0.25 mm)
5SM
16:19
Overcast
Light Rain
57°F / 14°C 55°F / 13°C 94% 29.92 in
(1013 mb)
S 10.4 mph
(S 17 kph)
0.01 in
(0.25 mm)
5SM
16:04
Overcast
Light Rain
57°F / 14°C 55°F / 13°C 94% 29.92 in
(1013 mb)
S 8.1 mph
(S 13 kph)
0.01 in
(0.25 mm)
1 1/2SM
15:56
Overcast
Light Rain
57°F / 14°C 55°F / 13°C 94% 29.92 in
(1013 mb)
S 11.5 mph
(S 19 kph)
0.01 in
(0.25 mm)
1 1/2SM
15:53
Overcast
Light Rain
57°F / 14°C 55°F / 13°C 94% 29.92 in
(1013 mb)
S 9.2 mph
(S 15 kph)
0.03 in
(0.76 mm)
1 1/2SM
15:33
Overcast
Light Rain
57°F / 14°C 55°F / 13°C 94% 29.92 in
(1013 mb)
S 6.9 mph
(S 11 kph)
0.02 in
(0.51 mm)
1 1/2SM
15:03
Overcast
Light Rain
57°F / 14°C 55°F / 13°C 94% 29.92 in
(1013 mb)
S 5.8 mph
(S 9 kph)
0.01 in
(0.25 mm)
2SM
14:53
Overcast
Light Rain
57°F / 14°C 55°F / 13°C 94% 29.92 in
(1013 mb)
SSE 6.9 mph
(SSE 11 kph)
0.00 in
(0.00 mm)
3SM
14:03
Overcast
Light Rain
57°F / 14°C 55°F / 13°C 94% 29.92 in
(1013 mb)
S 9.2 mph
(S 15 kph)
0.00 in
(0.00 mm)
5SM
13:53
Overcast
Light Rain
57°F / 14°C 55°F / 13°C 94% 29.92 in
(1013 mb)
S 10.4 mph
(S 17 kph)
0.08 in
(2.03 mm)
4SM
13:48
Overcast
Light Rain
57°F / 14°C 55°F / 13°C 94% 29.92 in
(1013 mb)
S 6.9 mph
(S 11 kph)
0.08 in
(2.03 mm)
3SM
13:36
Overcast
Light Rain
57°F / 14°C 55°F / 13°C 94% 29.92 in
(1013 mb)
SE 3.5 mph
(SE 6 kph)
0.07 in
(1.78 mm)
1 1/2SM
12:48
Overcast
Light Rain
57°F / 14°C 55°F / 13°C 94% 29.92 in
(1013 mb)
SSE 5.8 mph
(SSE 9 kph)
0.04 in
(1.02 mm)
1 1/2SM
12:47
Overcast
Light Rain
57°F / 14°C 55°F / 13°C 94% 29.92 in
(1013 mb)
SSE 4.6 mph
(SSE 7 kph)
0.04 in
(1.02 mm)
1 1/2SM
12:25
Overcast
Light Rain
57°F / 14°C 55°F / 13°C 94% 29.92 in
(1013 mb)
S 3.5 mph
(S 6 kph)
0.02 in
(0.51 mm)
2SM
11:53
Overcast
Light Rain
57°F / 14°C 55°F / 13°C 94% 29.92 in
(1013 mb)
SSE 6.9 mph
(SSE 11 kph)
0.01 in
(0.25 mm)
4SM
10:53
Overcast
Light Rain
57°F / 14°C 54°F / 12°C 88% 29.92 in
(1013 mb)
SW 8.1 mph
(SW 13 kph)
0.00 in
(0.00 mm)
5SM
09:53
Overcast
Fog And Mist
57°F / 14°C 54°F / 12°C 88% 29.92 in
(1013 mb)
S 4.6 mph
(S 7 kph)
0.00 in
(0.00 mm)
6SM
09:21
Overcast
Light Rain
57°F / 14°C 54°F / 12°C 88% 29.92 in
(1013 mb)
S 6.9 mph
(S 11 kph)
0.00 in
(0.00 mm)
10SM
08:53
Overcast
57°F / 14°C 54°F / 12°C 88% 29.92 in
(1013 mb)
SE 4.6 mph
(SE 7 kph)
0.00 in
(0.00 mm)
10SM
08:09
Overcast
57°F / 14°C 54°F / 12°C 88% 29.92 in
(1013 mb)
S 3.5 mph
(S 6 kph)
0.00 in
(0.00 mm)
10SM
07:53
Overcast
Light Rain
55°F / 13°C 54°F / 12°C 94% 29.92 in
(1013 mb)
Calm 0.08 in
(2.03 mm)
6SM
07:17
Overcast
Rain
57°F / 14°C 54°F / 12°C 88% 29.92 in
(1013 mb)
Calm 0.06 in
(1.52 mm)
3SM
06:57
Overcast
Rain
57°F / 14°C 54°F / 12°C 88% 29.92 in
(1013 mb)
Calm 0.01 in
(0.25 mm)
2 1/2SM
06:53
Overcast
Light Rain
57°F / 14°C 54°F / 12°C 88% 29.92 in
(1013 mb)
Calm 0.03 in
(0.76 mm)
5SM
04:53
Overcast
55°F / 13°C 54°F / 12°C 94% 29.92 in
(1013 mb)
ESE 4.6 mph
(ESE 7 kph)
0.00 in
(0.00 mm)
10SM
03:53
Overcast
55°F / 13°C 52°F / 11°C 88% 29.95 in
(1014 mb)
SSE 3.5 mph
(SSE 6 kph)
- 10SM
02:53
Overcast
57°F / 14°C 54°F / 12°C 88% 29.95 in
(1014 mb)
S 3.5 mph
(S 6 kph)
- 10SM
01:26
Overcast
57°F / 14°C 52°F / 11°C 82% 29.98 in
(1015 mb)
Variable 3.5 mph
(Variable 6 kph)
- 10SM
01:06
Overcast
57°F / 14°C 52°F / 11°C 82% 29.98 in
(1015 mb)
S 4.6 mph
(S 7 kph)
- 10SM
00:53
Overcast
57°F / 14°C 52°F / 11°C 82% 29.98 in
(1015 mb)
S 4.6 mph
(S 7 kph)
- 10SM
00:37
Overcast
57°F / 14°C 52°F / 11°C 82% 29.98 in
(1015 mb)
S 5.8 mph
(S 9 kph)
- 10SM
Time Weather Temperature Dewpoint Humidity Pressure Winds Precip Visibility


Weather for websites

WeatherForYou.com, LLC is not responsible for any damages or problems caused by this service. Current weather conditions are obtained from the closest station including government and personal stations which may have varying degrees of accuracy. Weather forecasts are derived from the NOAA NDFD. Like all things, this site belongs to Jesus Christ... He just trusts us to maintain it. If you have any questions or comments email webmaster@weatherforyou.com

Copyright © 2016, WeatherForYou.com LLC. All rights reserved.